{"data":{"norad_id":56471,"epoch":"2026-09-20T22:00:03.000096Z","epoch_age_seconds":75933,"freshness":"FRESH","line1":"1 56471U 23064Z   26263.91670139 -.00007688  00000+0 -48811-3 0  9998","line2":"2 56471  70.0004 352.1328 0002478 313.3631  84.5478 15.08333839  5768","mean_motion":15.08333839,"eccentricity":0.0002478,"inclination_deg":70.0004,"raan_deg":352.1328,"arg_perigee_deg":313.3631,"mean_anomaly_deg":84.5478,"bstar":-0.00048811,"rev_number":576,"period_min":95.469581253623,"perigee_km":539.57631903587,"apogee_km":543.00558752951,"semimajor_km":6919.4279532827,"source":"CELESTRAK","updated_at":"2026-09-21T09:00:33.445724Z"}}